����������;��������(kWh)
2018-08-27 00:00;97,25
2018-08-27 00:15;96,7
2018-08-27 00:30;96,2
2018-08-27 00:45;95,55
2018-08-27 01:00;96,15
2018-08-27 01:15;95,9
2018-08-27 01:30;95,6
2018-08-27 01:45;96,3
2018-08-27 02:00;94,6
2018-08-27 02:15;95,8
2018-08-27 02:30;93,3
2018-08-27 02:45;94,8
2018-08-27 03:00;93,9
2018-08-27 03:15;94,15
2018-08-27 03:30;93,75
2018-08-27 03:45;96,4
2018-08-27 04:00;107,3
2018-08-27 04:15;104,4
2018-08-27 04:30;104,5
2018-08-27 04:45;107,15
2018-08-27 05:00;105,15
2018-08-27 05:15;108,95
2018-08-27 05:30;107,2
2018-08-27 05:45;106,8
2018-08-27 06:00;106
2018-08-27 06:15;103,15
2018-08-27 06:30;103,1
2018-08-27 06:45;103
2018-08-27 07:00;99,4
2018-08-27 07:15;100,6
2018-08-27 07:30;163,35
2018-08-27 07:45;130,05
2018-08-27 08:00;139,25
2018-08-27 08:15;141,55
2018-08-27 08:30;183,05
2018-08-27 08:45;192,8
2018-08-27 09:00;166,95
2018-08-27 09:15;178,4
2018-08-27 09:30;190,55
2018-08-27 09:45;213,05
2018-08-27 10:00;212,9
2018-08-27 10:15;224,2
2018-08-27 10:30;229,05
2018-08-27 10:45;235,65
2018-08-27 11:00;239,4
2018-08-27 11:15;253,25
2018-08-27 11:30;269,15
2018-08-27 11:45;244,1
2018-08-27 12:00;260,9
2018-08-27 12:15;251
2018-08-27 12:30;266,5
2018-08-27 12:45;255,05
2018-08-27 13:00;258,5
2018-08-27 13:15;268,65
2018-08-27 13:30;246,15
2018-08-27 13:45;258,75
2018-08-27 14:00;258,4
2018-08-27 14:15;244
2018-08-27 14:30;242,9
2018-08-27 14:45;248
2018-08-27 15:00;244,85
2018-08-27 15:15;239,4
2018-08-27 15:30;228,05
2018-08-27 15:45;223,5
2018-08-27 16:00;219
2018-08-27 16:15;212,4
2018-08-27 16:30;210,7
2018-08-27 16:45;205,2
2018-08-27 17:00;207,15
2018-08-27 17:15;202,8
2018-08-27 17:30;190,8
2018-08-27 17:45;203,4
2018-08-27 18:00;186,95
2018-08-27 18:15;177,15
2018-08-27 18:30;178,15
2018-08-27 18:45;180,7
2018-08-27 19:00;169,1
2018-08-27 19:15;153,6
2018-08-27 19:30;152,05
2018-08-27 19:45;145,3
2018-08-27 20:00;144,05
2018-08-27 20:15;133
2018-08-27 20:30;128,25
2018-08-27 20:45;123,65
2018-08-27 21:00;113,15
2018-08-27 21:15;111,25
2018-08-27 21:30;110,4
2018-08-27 21:45;102
2018-08-27 22:00;99,8
2018-08-27 22:15;94,55
2018-08-27 22:30;91,4
2018-08-27 22:45;93,5
2018-08-27 23:00;95,25
2018-08-27 23:15;90,4
2018-08-27 23:30;92
2018-08-27 23:45;89,65
2018-08-28 00:00;83,15
2018-08-28 00:15;82,3
2018-08-28 00:30;81,6
2018-08-28 00:45;84,6
2018-08-28 01:00;82,1
2018-08-28 01:15;81,95
2018-08-28 01:30;83,85
2018-08-28 01:45;81,55
2018-08-28 02:00;83,65
2018-08-28 02:15;81,1
2018-08-28 02:30;80,65
2018-08-28 02:45;82,95
2018-08-28 03:00;80,25
2018-08-28 03:15;81,55
2018-08-28 03:30;83,55
2018-08-28 03:45;81,6
2018-08-28 04:00;82,95
2018-08-28 04:15;82,2
2018-08-28 04:30;91,6
2018-08-28 04:45;93,4
2018-08-28 05:00;93,45
2018-08-28 05:15;96,95
2018-08-28 05:30;95,9
2018-08-28 05:45;94
2018-08-28 06:00;93,9
2018-08-28 06:15;91,85
2018-08-28 06:30;90,3
2018-08-28 06:45;118,8
2018-08-28 07:00;121,3
2018-08-28 07:15;116,6
2018-08-28 07:30;164,2
2018-08-28 07:45;148,75
2018-08-28 08:00;152,15
2018-08-28 08:15;136,45
2018-08-28 08:30;144,05
2018-08-28 08:45;151,75
2018-08-28 09:00;153,8
2018-08-28 09:15;157,05
2018-08-28 09:30;165,5
2018-08-28 09:45;175,9
2018-08-28 10:00;183,3
2018-08-28 10:15;180,4
2018-08-28 10:30;190,45
2018-08-28 10:45;213,1
2018-08-28 11:00;221,55
2018-08-28 11:15;228,65
2018-08-28 11:30;236,15
2018-08-28 11:45;243,45
2018-08-28 12:00;249,2
2018-08-28 12:15;231,9
2018-08-28 12:30;246,4
2018-08-28 12:45;231,4
2018-08-28 13:00;246,6
2018-08-28 13:15;234,6
2018-08-28 13:30;238,6
2018-08-28 13:45;231,8
2018-08-28 14:00;216
2018-08-28 14:15;203,45
2018-08-28 14:30;195,45
2018-08-28 14:45;195,1
2018-08-28 15:00;193,45
2018-08-28 15:15;182,8
2018-08-28 15:30;171,35
2018-08-28 15:45;175,9
2018-08-28 16:00;169,2
2018-08-28 16:15;165,3
2018-08-28 16:30;161,3
2018-08-28 16:45;160,15
2018-08-28 17:00;155,7
2018-08-28 17:15;143,5
2018-08-28 17:30;147,75
2018-08-28 17:45;145,85
2018-08-28 18:00;137,35
2018-08-28 18:15;135,2
2018-08-28 18:30;131,45
2018-08-28 18:45;126,2
2018-08-28 19:00;120,1
2018-08-28 19:15;114,75
2018-08-28 19:30;114,7
2018-08-28 19:45;115,65
2018-08-28 20:00;111,5
2018-08-28 20:15;111,65
2018-08-28 20:30;112,05
2018-08-28 20:45;112,95
2018-08-28 21:00;108,65
2018-08-28 21:15;104,25
2018-08-28 21:30;103,45
2018-08-28 21:45;101,85
2018-08-28 22:00;94,8
2018-08-28 22:15;90,5
2018-08-28 22:30;90,45
2018-08-28 22:45;88,15
2018-08-28 23:00;87,8
2018-08-28 23:15;87,6
2018-08-28 23:30;88,35
2018-08-28 23:45;88,3
2018-08-29 00:00;87,5
2018-08-29 00:15;79,2
2018-08-29 00:30;77,55
2018-08-29 00:45;78,15
2018-08-29 01:00;78,75
2018-08-29 01:15;77,75
2018-08-29 01:30;76,95
2018-08-29 01:45;86,3
2018-08-29 02:00;86,2
2018-08-29 02:15;86
2018-08-29 02:30;88,7
2018-08-29 02:45;85,9
2018-08-29 03:00;86,1
2018-08-29 03:15;85,7
2018-08-29 03:30;86,3
2018-08-29 03:45;86,05
2018-08-29 04:00;85,7
2018-08-29 04:15;83,7
2018-08-29 04:30;88,35
2018-08-29 04:45;85
2018-08-29 05:00;85,5
2018-08-29 05:15;89,3
2018-08-29 05:30;90,5
2018-08-29 05:45;90,65
2018-08-29 06:00;88,6
2018-08-29 06:15;85,75
2018-08-29 06:30;85,3
2018-08-29 06:45;84
2018-08-29 07:00;87,75
2018-08-29 07:15;112,95
2018-08-29 07:30;159,65
2018-08-29 07:45;139,95
2018-08-29 08:00;137,95
2018-08-29 08:15;110,8
2018-08-29 08:30;137,8
2018-08-29 08:45;139,95
2018-08-29 09:00;135,35
2018-08-29 09:15;151,5
2018-08-29 09:30;143,5
2018-08-29 09:45;149,85
2018-08-29 10:00;155,25
2018-08-29 10:15;158,1
2018-08-29 10:30;158,85
2018-08-29 10:45;168,9
2018-08-29 11:00;173,9
2018-08-29 11:15;193,15
2018-08-29 11:30;241,55
2018-08-29 11:45;231,9
2018-08-29 12:00;232,7
2018-08-29 12:15;220,45
2018-08-29 12:30;219,65
2018-08-29 12:45;213,5
2018-08-29 13:00;236,75
2018-08-29 13:15;215,2
2018-08-29 13:30;227,65
2018-08-29 13:45;229,9
2018-08-29 14:00;203,45
2018-08-29 14:15;201,4
2018-08-29 14:30;200,2
2018-08-29 14:45;202,85
2018-08-29 15:00;228
2018-08-29 15:15;207,6
2018-08-29 15:30;208,35
2018-08-29 15:45;182,95
2018-08-29 16:00;185,65
2018-08-29 16:15;189,55
2018-08-29 16:30;179,25
2018-08-29 16:45;169,95
2018-08-29 17:00;169,55
2018-08-29 17:15;167,95
2018-08-29 17:30;158,35
2018-08-29 17:45;151,45
2018-08-29 18:00;145,4
2018-08-29 18:15;141,2
2018-08-29 18:30;141,2
2018-08-29 18:45;137
2018-08-29 19:00;132,3
2018-08-29 19:15;129,05
2018-08-29 19:30;128
2018-08-29 19:45;127,3
2018-08-29 20:00;121,95
2018-08-29 20:15;121,45
2018-08-29 20:30;119,3
2018-08-29 20:45;116,35
2018-08-29 21:00;111,4
2018-08-29 21:15;105,25
2018-08-29 21:30;103
2018-08-29 21:45;96,05
2018-08-29 22:00;91,7
2018-08-29 22:15;86,05
2018-08-29 22:30;86,3
2018-08-29 22:45;84,85
2018-08-29 23:00;84,8
2018-08-29 23:15;83,45
2018-08-29 23:30;84,45
2018-08-29 23:45;83,25
2018-08-30 00:00;77,95
2018-08-30 00:15;78,4
2018-08-30 00:30;77,3
2018-08-30 00:45;77,6
2018-08-30 01:00;80
2018-08-30 01:15;77,35
2018-08-30 01:30;77,4
2018-08-30 01:45;80,4
2018-08-30 02:00;81,1
2018-08-30 02:15;88,55
2018-08-30 02:30;88,95
2018-08-30 02:45;88,5
2018-08-30 03:00;88,25
2018-08-30 03:15;90,85
2018-08-30 03:30;87,95
2018-08-30 03:45;90,1
2018-08-30 04:00;90,05
2018-08-30 04:15;88,95
2018-08-30 04:30;91,2
2018-08-30 04:45;88,8
2018-08-30 05:00;88,35
2018-08-30 05:15;92,3
2018-08-30 05:30;89,75
2018-08-30 05:45;91,05
2018-08-30 06:00;93,25
2018-08-30 06:15;88,35
2018-08-30 06:30;87,45
2018-08-30 06:45;88,3
2018-08-30 07:00;89,15
2018-08-30 07:15;90,4
2018-08-30 07:30;143,7
2018-08-30 07:45;144,35
2018-08-30 08:00;171,1
2018-08-30 08:15;144,15
2018-08-30 08:30;159,15
2018-08-30 08:45;160,6
2018-08-30 09:00;160,3
2018-08-30 09:15;166,25
2018-08-30 09:30;185,35
2018-08-30 09:45;182,7
2018-08-30 10:00;196,6
2018-08-30 10:15;186,85
2018-08-30 10:30;218,75
2018-08-30 10:45;209,75
2018-08-30 11:00;217,45
2018-08-30 11:15;238,6
2018-08-30 11:30;215,45
2018-08-30 11:45;232,85
2018-08-30 12:00;219,4
2018-08-30 12:15;238,95
2018-08-30 12:30;244,6
2018-08-30 12:45;218,25
2018-08-30 13:00;239,75
2018-08-30 13:15;226,95
2018-08-30 13:30;224,9
2018-08-30 13:45;245,35
2018-08-30 14:00;221,1
2018-08-30 14:15;230,6
2018-08-30 14:30;218,7
2018-08-30 14:45;226,05
2018-08-30 15:00;238,35
2018-08-30 15:15;211,3
2018-08-30 15:30;215,7
2018-08-30 15:45;222,2
2018-08-30 16:00;192,15
2018-08-30 16:15;197,1
2018-08-30 16:30;184,5
2018-08-30 16:45;193,2
2018-08-30 17:00;188,55
2018-08-30 17:15;182,1
2018-08-30 17:30;170,8
2018-08-30 17:45;165,9
2018-08-30 18:00;159,45
2018-08-30 18:15;152,95
2018-08-30 18:30;158,45
2018-08-30 18:45;148,3
2018-08-30 19:00;141,05
2018-08-30 19:15;133,8
2018-08-30 19:30;133,05
2018-08-30 19:45;136,75
2018-08-30 20:00;125,05
2018-08-30 20:15;119,3
2018-08-30 20:30;120,5
2018-08-30 20:45;118,6
2018-08-30 21:00;120,1
2018-08-30 21:15;113,75
2018-08-30 21:30;102
2018-08-30 21:45;100,65
2018-08-30 22:00;94,85
2018-08-30 22:15;88,35
2018-08-30 22:30;89,1
2018-08-30 22:45;88,85
2018-08-30 23:00;91
2018-08-30 23:15;90,95
2018-08-30 23:30;87,2
2018-08-30 23:45;88,25
2018-08-31 00:00;84,15
2018-08-31 00:15;82,3
2018-08-31 00:30;81,8
2018-08-31 00:45;81,15
2018-08-31 01:00;79,95
2018-08-31 01:15;82,6
2018-08-31 01:30;78,8
2018-08-31 01:45;80,45
2018-08-31 02:00;81,1
2018-08-31 02:15;85
2018-08-31 02:30;90,8
2018-08-31 02:45;90,8
2018-08-31 03:00;92,25
2018-08-31 03:15;92,75
2018-08-31 03:30;92,35
2018-08-31 03:45;93,05
2018-08-31 04:00;93,45
2018-08-31 04:15;93,1
2018-08-31 04:30;93,1
2018-08-31 04:45;115,15
2018-08-31 05:00;121,45
2018-08-31 05:15;111,85
2018-08-31 05:30;110,85
2018-08-31 05:45;105,35
2018-08-31 06:00;104,15
2018-08-31 06:15;102,3
2018-08-31 06:30;100,5
2018-08-31 06:45;99,2
2018-08-31 07:00;101
2018-08-31 07:15;100,7
2018-08-31 07:30;150,3
2018-08-31 07:45;144,4
2018-08-31 08:00;151,9
2018-08-31 08:15;132,2
2018-08-31 08:30;155,9
2018-08-31 08:45;168,85
2018-08-31 09:00;186,3
2018-08-31 09:15;167,5
2018-08-31 09:30;177,7
2018-08-31 09:45;181,75
2018-08-31 10:00;187,35
2018-08-31 10:15;203,15
2018-08-31 10:30;203,55
2018-08-31 10:45;214,15
2018-08-31 11:00;224,3
2018-08-31 11:15;226,85
2018-08-31 11:30;223,1
2018-08-31 11:45;222,2
2018-08-31 12:00;234,15
2018-08-31 12:15;216,95
2018-08-31 12:30;233,9
2018-08-31 12:45;211,65
2018-08-31 13:00;226,35
2018-08-31 13:15;223,25
2018-08-31 13:30;233,8
2018-08-31 13:45;231,75
2018-08-31 14:00;227,6
2018-08-31 14:15;229,9
2018-08-31 14:30;229,45
2018-08-31 14:45;221,3
2018-08-31 15:00;221,75
2018-08-31 15:15;214,65
2018-08-31 15:30;208,75
2018-08-31 15:45;199,25
2018-08-31 16:00;195,95
2018-08-31 16:15;195,7
2018-08-31 16:30;192,05
2018-08-31 16:45;187,4
2018-08-31 17:00;187,1
2018-08-31 17:15;182,4
2018-08-31 17:30;182,95
2018-08-31 17:45;177
2018-08-31 18:00;177,05
2018-08-31 18:15;173,45
2018-08-31 18:30;150,05
2018-08-31 18:45;163,4
2018-08-31 19:00;158,6
2018-08-31 19:15;143,7
2018-08-31 19:30;140,8
2018-08-31 19:45;129,75
2018-08-31 20:00;128,05
2018-08-31 20:15;119,75
2018-08-31 20:30;119,9
2018-08-31 20:45;116
2018-08-31 21:00;112,45
2018-08-31 21:15;111,9
2018-08-31 21:30;109,05
2018-08-31 21:45;101,95
2018-08-31 22:00;98,35
2018-08-31 22:15;93,25
2018-08-31 22:30;90,7
2018-08-31 22:45;84,85
2018-08-31 23:00;85,1
2018-08-31 23:15;80,95
2018-08-31 23:30;81,05
2018-08-31 23:45;80,8
2018-09-01 00:00;79,15
2018-09-01 00:15;76,55
2018-09-01 00:30;76,85
2018-09-01 00:45;77,8
2018-09-01 01:00;76,6
2018-09-01 01:15;76,45
2018-09-01 01:30;77,55
2018-09-01 01:45;75,5
2018-09-01 02:00;75,7
2018-09-01 02:15;75,85
2018-09-01 02:30;76,2
2018-09-01 02:45;74,25
2018-09-01 03:00;76,7
2018-09-01 03:15;75,6
2018-09-01 03:30;77,75
2018-09-01 03:45;77,15
2018-09-01 04:00;75,85
2018-09-01 04:15;77,15
2018-09-01 04:30;77
2018-09-01 04:45;75,5
2018-09-01 05:00;76,8
2018-09-01 05:15;76,9
2018-09-01 05:30;76,15
2018-09-01 05:45;76,65
2018-09-01 06:00;78
2018-09-01 06:15;72,5
2018-09-01 06:30;73,8
2018-09-01 06:45;73,75
2018-09-01 07:00;69,75
2018-09-01 07:15;69,85
2018-09-01 07:30;71,55
2018-09-01 07:45;69,15
2018-09-01 08:00;71,8
2018-09-01 08:15;72,5
2018-09-01 08:30;73,75
2018-09-01 08:45;74,45
2018-09-01 09:00;76,15
2018-09-01 09:15;73,95
2018-09-01 09:30;76,35
2018-09-01 09:45;76,4
2018-09-01 10:00;81
2018-09-01 10:15;79,95
2018-09-01 10:30;81
2018-09-01 10:45;140,25
2018-09-01 11:00;129,7
2018-09-01 11:15;87,45
2018-09-01 11:30;90,35
2018-09-01 11:45;89,2
2018-09-01 12:00;95,8
2018-09-01 12:15;100,15
2018-09-01 12:30;96,55
2018-09-01 12:45;98,8
2018-09-01 13:00;105,1
2018-09-01 13:15;105,4
2018-09-01 13:30;91,95
2018-09-01 13:45;91
2018-09-01 14:00;90,2
2018-09-01 14:15;89,45
2018-09-01 14:30;90,35
2018-09-01 14:45;90,55
2018-09-01 15:00;92,2
2018-09-01 15:15;91,5
2018-09-01 15:30;92
2018-09-01 15:45;87,3
2018-09-01 16:00;85,1
2018-09-01 16:15;91,3
2018-09-01 16:30;86,15
2018-09-01 16:45;89,9
2018-09-01 17:00;87,3
2018-09-01 17:15;87
2018-09-01 17:30;88,85
2018-09-01 17:45;86,9
2018-09-01 18:00;89,35
2018-09-01 18:15;86,65
2018-09-01 18:30;88,25
2018-09-01 18:45;84,25
2018-09-01 19:00;83,35
2018-09-01 19:15;87,75
2018-09-01 19:30;85,8
2018-09-01 19:45;91,2
2018-09-01 20:00;93,3
2018-09-01 20:15;93,65
2018-09-01 20:30;98,3
2018-09-01 20:45;97,05
2018-09-01 21:00;99,35
2018-09-01 21:15;97,4
2018-09-01 21:30;92,85
2018-09-01 21:45;92,4
2018-09-01 22:00;89,8
2018-09-01 22:15;86,8
2018-09-01 22:30;86,2
2018-09-01 22:45;85
2018-09-01 23:00;88,4
2018-09-01 23:15;85,85
2018-09-01 23:30;84,75
2018-09-01 23:45;84,6
2018-09-02 00:00;80,7
2018-09-02 00:15;78,4
2018-09-02 00:30;78,2
2018-09-02 00:45;78,9
2018-09-02 01:00;76,55
2018-09-02 01:15;78,55
2018-09-02 01:30;76,3
2018-09-02 01:45;76,3
2018-09-02 02:00;75,6
2018-09-02 02:15;74,5
2018-09-02 02:30;76,3
2018-09-02 02:45;74,4
2018-09-02 03:00;75
2018-09-02 03:15;76,8
2018-09-02 03:30;74,85
2018-09-02 03:45;77,7
2018-09-02 04:00;76,05
2018-09-02 04:15;75,4
2018-09-02 04:30;77,95
2018-09-02 04:45;76,55
2018-09-02 05:00;74,85
2018-09-02 05:15;77,35
2018-09-02 05:30;77,7
2018-09-02 05:45;75,2
2018-09-02 06:00;77,7
2018-09-02 06:15;73
2018-09-02 06:30;72,25
2018-09-02 06:45;72,05
2018-09-02 07:00;73,8
2018-09-02 07:15;71,15
2018-09-02 07:30;70,15
2018-09-02 07:45;70,25
2018-09-02 08:00;71,55
2018-09-02 08:15;69,85
2018-09-02 08:30;70,35
2018-09-02 08:45;69,65
2018-09-02 09:00;71,95
2018-09-02 09:15;73,65
2018-09-02 09:30;74,35
2018-09-02 09:45;78
2018-09-02 10:00;76,25
2018-09-02 10:15;77
2018-09-02 10:30;77,3
2018-09-02 10:45;77,4
2018-09-02 11:00;77,7
2018-09-02 11:15;77,95
2018-09-02 11:30;81,05
2018-09-02 11:45;86,3
2018-09-02 12:00;88,1
2018-09-02 12:15;91,05
2018-09-02 12:30;88,55
2018-09-02 12:45;90,6
2018-09-02 13:00;91,85
2018-09-02 13:15;91,9
2018-09-02 13:30;92,3
2018-09-02 13:45;89,25
2018-09-02 14:00;90,05
2018-09-02 14:15;91,45
2018-09-02 14:30;92
2018-09-02 14:45;89,05
2018-09-02 15:00;85,85
2018-09-02 15:15;91,1
2018-09-02 15:30;87,7
2018-09-02 15:45;88,7
2018-09-02 16:00;90,3
2018-09-02 16:15;87,95
2018-09-02 16:30;87,5
2018-09-02 16:45;89,95
2018-09-02 17:00;85,35
2018-09-02 17:15;88,45
2018-09-02 17:30;92,65
2018-09-02 17:45;93,75
2018-09-02 18:00;92,4
2018-09-02 18:15;89,7
2018-09-02 18:30;90,65
2018-09-02 18:45;94,7
2018-09-02 19:00;92,05
2018-09-02 19:15;93,8
2018-09-02 19:30;93,05
2018-09-02 19:45;95,25
2018-09-02 20:00;100
2018-09-02 20:15;100,15
2018-09-02 20:30;102,1
2018-09-02 20:45;103,15
2018-09-02 21:00;99,85
2018-09-02 21:15;101,4
2018-09-02 21:30;96,55
2018-09-02 21:45;95,7
2018-09-02 22:00;91,05
2018-09-02 22:15;89,45
2018-09-02 22:30;90,05
2018-09-02 22:45;88,35
2018-09-02 23:00;92,65
2018-09-02 23:15;85,5
2018-09-02 23:30;86,05
2018-09-02 23:45;87,6

